Météo par heure à Juraszka

Ce jour, 20 Juin, Dimanche

Heure Température Précipitation Vent Pression Humidité
00:00 +15°C° 0.1 mm 1 m/s 685 mmHg 89%
01:00 +15°C° 0.1 mm 1 m/s 685 mmHg 90%
02:00 +14°C° 0 mm 1 m/s 685 mmHg 90%
03:00 +14°C° 0 mm 1 m/s 684 mmHg 90%
04:00 +14°C° 0 mm 1 m/s 684 mmHg 91%
05:00 +16°C° 0 mm 1 m/s 684 mmHg 85%
06:00 +19°C° 0 mm 1 m/s 685 mmHg 80%
07:00 +21°C° 0 mm 1 m/s 685 mmHg 74%
08:00 +22°C° 0.1 mm 1 m/s 685 mmHg 68%
09:00 +24°C° 0.1 mm 1 m/s 686 mmHg 63%
10:00 +25°C° 0.1 mm 1 m/s 686 mmHg 57%
11:00 +26°C° 0.2 mm 1 m/s 686 mmHg 53%
12:00 +27°C° 0.2 mm 1 m/s 686 mmHg 50%
13:00 +27°C° 0.2 mm 2 m/s 686 mmHg 46%
14:00 +27°C° 0 mm 2 m/s 685 mmHg 47%
15:00 +27°C° 0 mm 2 m/s 685 mmHg 48%
16:00 +27°C° 0 mm 2 m/s 685 mmHg 49%
17:00 +25°C° 0 mm 2 m/s 684 mmHg 58%
18:00 +23°C° 0 mm 1 m/s 684 mmHg 68%
19:00 +21°C° 0 mm 1 m/s 683 mmHg 78%
20:00 +20°C° 0 mm 1 m/s 683 mmHg 82%
21:00 +19°C° 0 mm 1 m/s 683 mmHg 85%
22:00 +16°C° 0 mm 1 m/s 683 mmHg 89%
23:00 +16°C° 0 mm 1 m/s 683 mmHg 89%

Demain, 21 Juin, Lundi

Heure Température Précipitation Vent Pression Humidité
00:00 +16°C° 0 mm 1 m/s 682 mmHg 89%
01:00 +15°C° 0 mm 1 m/s 682 mmHg 89%
02:00 +15°C° 0 mm 1 m/s 682 mmHg 89%
03:00 +15°C° 0 mm 1 m/s 681 mmHg 88%
04:00 +15°C° 0 mm 1 m/s 681 mmHg 88%
05:00 +18°C° 0 mm 1 m/s 682 mmHg 80%
06:00 +20°C° 0 mm 1 m/s 682 mmHg 73%
07:00 +22°C° 0 mm 1 m/s 683 mmHg 66%
08:00 +24°C° 0 mm 1 m/s 683 mmHg 59%
09:00 +26°C° 0 mm 1 m/s 683 mmHg 53%
10:00 +27°C° 0 mm 1 m/s 683 mmHg 47%
11:00 +28°C° 0 mm 1 m/s 683 mmHg 45%
12:00 +28°C° 0 mm 1 m/s 683 mmHg 42%
13:00 +29°C° 0 mm 1 m/s 683 mmHg 40%
14:00 +29°C° 0 mm 2 m/s 683 mmHg 42%
15:00 +28°C° 0 mm 2 m/s 682 mmHg 45%
16:00 +28°C° 0 mm 2 m/s 682 mmHg 48%
17:00 +26°C° 0.4 mm 1 m/s 682 mmHg 58%
18:00 +24°C° 0.4 mm 1 m/s 682 mmHg 67%
19:00 +22°C° 0.4 mm 1 m/s 681 mmHg 77%
20:00 +20°C° 1.5 mm 1 m/s 681 mmHg 82%
21:00 +18°C° 1.5 mm 2 m/s 682 mmHg 88%
22:00 +17°C° 1.5 mm 2 m/s 682 mmHg 93%
23:00 +16°C° 0.5 mm 2 m/s 682 mmHg 94%

Après-demain, 22 Juin, Mardi

Heure Température Précipitation Vent Pression Humidité
00:00 +16°C° 0.5 mm 1 m/s 682 mmHg 95%
01:00 +16°C° 0.5 mm 1 m/s 682 mmHg 96%
02:00 +16°C° 1.5 mm 1 m/s 682 mmHg 97%
03:00 +16°C° 1.5 mm 1 m/s 682 mmHg 97%
04:00 +16°C° 1.5 mm 1 m/s 682 mmHg 97%
05:00 +18°C° 0 mm 1 m/s 682 mmHg 95%
06:00 +19°C° 0 mm 1 m/s 682 mmHg 92%
07:00 +19°C° 0 mm 1 m/s 683 mmHg 89%
08:00 +21°C° 0.3 mm 1 m/s 683 mmHg 84%
09:00 +22°C° 0.3 mm 1 m/s 684 mmHg 80%
10:00 +23°C° 0.3 mm 1 m/s 684 mmHg 75%
11:00 +24°C° 0.4 mm 1 m/s 684 mmHg 72%
12:00 +24°C° 0.4 mm 1 m/s 685 mmHg 69%
13:00 +25°C° 0.4 mm 1 m/s 685 mmHg 67%
14:00 +25°C° 0.9 mm 1 m/s 685 mmHg 69%
15:00 +25°C° 0.9 mm 1 m/s 685 mmHg 72%
16:00 +24°C° 0.9 mm 1 m/s 685 mmHg 75%
17:00 +23°C° 1 mm 1 m/s 685 mmHg 79%
18:00 +22°C° 1 mm 1 m/s 684 mmHg 83%
19:00 +21°C° 1 mm 1 m/s 684 mmHg 87%
20:00 +20°C° 0.2 mm 1 m/s 684 mmHg 89%
21:00 +19°C° 0.2 mm 1 m/s 684 mmHg 90%
22:00 +18°C° 0.2 mm 1 m/s 684 mmHg 92%
23:00 +18°C° 0 mm 1 m/s 684 mmHg 93%

23 Juin, Mercredi

Heure Température Précipitation Vent Pression Humidité
00:00 +16°C° 0 mm 1 m/s 684 mmHg 93%
01:00 +16°C° 0 mm 1 m/s 683 mmHg 93%
02:00 +16°C° 0 mm 1 m/s 683 mmHg 93%
03:00 +16°C° 0 mm 1 m/s 683 mmHg 93%
04:00 +16°C° 0 mm 1 m/s 683 mmHg 93%
05:00 +18°C° 0 mm 1 m/s 684 mmHg 89%
06:00 +20°C° 0 mm 1 m/s 684 mmHg 85%
07:00 +22°C° 0 mm 1 m/s 685 mmHg 81%
08:00 +23°C° 0.2 mm 1 m/s 685 mmHg 75%
09:00 +24°C° 0.2 mm 1 m/s 686 mmHg 70%
10:00 +26°C° 0.2 mm 1 m/s 686 mmHg 64%
11:00 +26°C° 0.5 mm 2 m/s 686 mmHg 64%
12:00 +26°C° 0.5 mm 2 m/s 687 mmHg 64%
13:00 +26°C° 0.5 mm 3 m/s 687 mmHg 64%
14:00 +26°C° 0.4 mm 2 m/s 687 mmHg 65%
15:00 +25°C° 0.4 mm 2 m/s 687 mmHg 65%
16:00 +25°C° 0.4 mm 2 m/s 688 mmHg 65%
17:00 +24°C° 0.1 mm 2 m/s 687 mmHg 70%
18:00 +22°C° 0.1 mm 1 m/s 687 mmHg 75%
19:00 +21°C° 0.1 mm 1 m/s 687 mmHg 81%
20:00 +19°C° 0 mm 1 m/s 687 mmHg 85%
21:00 +18°C° 0 mm 1 m/s 688 mmHg 89%
22:00 +15°C° 0 mm 1 m/s 688 mmHg 94%
23:00 +15°C° 0 mm 1 m/s 688 mmHg 95%

24 Juin, Jeudi

Heure Température Précipitation Vent Pression Humidité
00:00 +15°C° 0 mm 1 m/s 687 mmHg 95%
01:00 +14°C° 0 mm 1 m/s 687 mmHg 96%
02:00 +14°C° 0 mm 1 m/s 687 mmHg 96%
03:00 +14°C° 0 mm 1 m/s 687 mmHg 96%
04:00 +14°C° 0 mm 1 m/s 687 mmHg 96%
05:00 +15°C° 0 mm 1 m/s 687 mmHg 93%
06:00 +16°C° 0 mm 1 m/s 687 mmHg 89%
07:00 +19°C° 0 mm 1 m/s 688 mmHg 85%
08:00 +20°C° 0 mm 1 m/s 688 mmHg 79%
09:00 +22°C° 0 mm 1 m/s 688 mmHg 72%
10:00 +24°C° 0 mm 1 m/s 688 mmHg 66%
11:00 +25°C° 0.1 mm 1 m/s 688 mmHg 61%
12:00 +27°C° 0.1 mm 1 m/s 688 mmHg 56%
13:00 +28°C° 0.1 mm 2 m/s 688 mmHg 51%
14:00 +29°C° 0 mm 2 m/s 688 mmHg 51%
15:00 +29°C° 0 mm 2 m/s 687 mmHg 50%
16:00 +29°C° 0 mm 2 m/s 687 mmHg 49%
17:00 +27°C° 0.4 mm 2 m/s 686 mmHg 60%
18:00 +25°C° 0.4 mm 2 m/s 686 mmHg 71%
19:00 +23°C° 0.4 mm 1 m/s 685 mmHg 82%
20:00 +21°C° 2.2 mm 1 m/s 685 mmHg 85%
21:00 +20°C° 2.2 mm 1 m/s 684 mmHg 88%
22:00 +19°C° 2.2 mm 1 m/s 684 mmHg 92%
23:00 +18°C° 3.3 mm 1 m/s 684 mmHg 93%

25 Juin, Vendredi

Heure Température Précipitation Vent Pression Humidité
00:00 +18°C° 3.3 mm 1 m/s 684 mmHg 95%
01:00 +15°C° 3.3 mm 0 m/s 684 mmHg 97%
02:00 +16°C° 0 mm 1 m/s 684 mmHg 97%
03:00 +15°C° 0 mm 1 m/s 685 mmHg 98%
04:00 +15°C° 0 mm 2 m/s 685 mmHg 98%
05:00 +15°C° 0.1 mm 1 m/s 685 mmHg 97%
06:00 +15°C° 0.1 mm 1 m/s 686 mmHg 97%
07:00 +15°C° 0.1 mm 1 m/s 686 mmHg 96%
08:00 +15°C° 0.1 mm 1 m/s 687 mmHg 91%
09:00 +16°C° 0.1 mm 1 m/s 687 mmHg 87%
10:00 +17°C° 0.1 mm 2 m/s 687 mmHg 82%
11:00 +18°C° 0.1 mm 2 m/s 688 mmHg 78%
12:00 +18°C° 0.1 mm 2 m/s 688 mmHg 75%
13:00 +19°C° 0.1 mm 2 m/s 688 mmHg 71%
14:00 +19°C° 0 mm 2 m/s 688 mmHg 70%
15:00 +19°C° 0 mm 2 m/s 688 mmHg 69%
16:00 +19°C° 0 mm 2 m/s 688 mmHg 67%
17:00 +18°C° 0 mm 2 m/s 687 mmHg 73%
18:00 +17°C° 0 mm 2 m/s 687 mmHg 79%
19:00 +16°C° 0 mm 2 m/s 687 mmHg 85%
20:00 +15°C° 0 mm 2 m/s 687 mmHg 88%
21:00 +14°C° 0 mm 2 m/s 687 mmHg 91%
22:00 +13°C° 0 mm 1 m/s 687 mmHg 94%
23:00 +13°C° 0 mm 1 m/s 687 mmHg 95%
Voir plus

Nous avons besoin de votre consentement

Meteoprog et ses fournisseurs de services peuvent stocker et accéder à des données personnelles telles que des cookies, des identifiants d'appareils ou d'autres technologies similaires sur votre appareil et traiter ces données pour personnaliser le contenu et les publicités, ainsi que pour fournir des fonctionnalités de médias sociaux et analyser le trafic.

  • Stocker et/ou accéder à des informations sur votre appareil

    Des cookies, des identifiants d'appareils ou d'autres informations peuvent être stockés ou accessibles sur votre appareil aux fins indiquées ci-dessus.

  • Annonces et contenus personnalisés, mesure des annonces et des contenus, connaissance de l'audience et développement de produits

    Les annonces et le contenu peuvent être personnalisés en fonction d'un profil. D'autres données peuvent être ajoutées pour mieux personnaliser les annonces et le contenu. Les performances des publicités et du contenu peuvent être mesurées. Il est possible d'obtenir des informations sur le public qui a vu les publicités et le contenu. Ces données peuvent être utilisées pour développer ou améliorer l'expérience de l'utilisateur, les systèmes et les logiciels.

En cliquant sur "J'accepte", vous autorisez l'utilisation de cookies, des identifiants d'appareils, des balises web ou d'autres technologies similaires. Vos paramètres peuvent être modifiés dans le navigateur de votre appareil.

Dans certains cas, des intérêts légitimes peuvent être invoqués plutôt qu'un consentement. Vous pouvez en savoir plus à ce sujet dans notre Politique de confidentialité et de cookies.